Location: Altmatt
(47.1333°N, 8.7000°E)
Time: 19:19:39
(UTC+00:00)

Cosmos 2123 Rocket - Pass Details

Date: 13 July 2020
Orbit: 960 x 993 km, 82.9° (Epoch: 12 August)

Event Time Altitude Azimuth Distance (km) Brightness Sun altitude
Rises 22:57:59 0° 354° (N) 3,663 8.6 -20.8°
Reaches altitude 10° 23:00:34 10° 358° (N) 2,710 7.5 -20.9°
Maximum altitude 23:06:39 57° 77° (ENE) 1,123 4.3 -21.0°
Enters shadow 23:09:21 33° 140° (SE) 1,564 4.6 -21.0°
